Canby, MN

9:11 PM CDT on July 22, 2017 (GMT -0500)
Canby

Weather History for KCNB - April, 2013

Change the Weather History Date:

Tuesday, April 2, 2013

  Actual Average (KMML) Record (KMML)
Temperature  
Mean Temperature 28 °F -  
Max Temperature 36 °F 48 °F 81 °F (1963)
Min Temperature 19 °F 28 °F 10 °F (1975)
Degree Days  
Heating Degree Days 38    
Moisture  
Dew Point 22 °F    
Average Humidity 79    
Maximum Humidity 96    
Minimum Humidity 49    
Precipitation  
Precipitation 0.00 in - - ()
Sea Level Pressure  
Sea Level Pressure 30.31 in    
Wind  
Wind Speed 1 mph (NNE)    
Max Wind Speed 9 mph    
Max Gust Speed -    
Visibility 10 miles    
Events      
Averages and records for this station are not official NWS values.
T = Trace of Precipitation, MM = Missing Value Source: NWS Daily Summary

Daily Weather History Graph

Daily Weather History Graph

Search for Another Location

Airport or City:

Trip Planner

Search our weather history database for the weather conditions in past years. The results will help you decide how hot, cold, wet, or windy it might be!

Date:

Astronomy

Apr. 02, 2013 Rise Set
Actual Time 7:03 AM CDT 7:54 PM CDT
Civil Twilight 6:33 AM CDT 8:23 PM CDT
Nautical Twilight 5:58 AM CDT 8:59 PM CDT
Astronomical Twilight 5:21 AM CDT 9:36 PM CDT
Moon 2:10 AM CDT (4/2) 11:45 AM CDT (4/2)
Length of Visible Light 13h 49m
Length of Day
12h 50m
Waning Gibbous, 55% of the Moon is Illuminated
Apr 2
Waning Gibbous
Apr 2
Last Quarter
Apr 10
New
Apr 18
First Quarter
Apr 25
Full

Hourly Weather History & Observations

Time (CDT) Temp. Windchill Dew Point Humidity Pressure Visibility Wind Dir Wind Speed Gust Speed Precip Events Conditions
12:16 AM 22.6 °F - 20.8 °F 93% 30.28 in 10.0 mi Calm Calm - N/A   Clear
12:36 AM 22.8 °F - 21.2 °F 93% 30.28 in 10.0 mi Calm Calm - N/A   Clear
1:16 AM 22.5 °F - 20.8 °F 93% 30.28 in 10.0 mi Calm Calm - N/A   Clear
1:37 AM 21.7 °F - 20.3 °F 94% 30.27 in 10.0 mi Calm Calm - N/A   Clear
1:56 AM 21.7 °F - 20.5 °F 95% 30.27 in 10.0 mi Calm Calm - N/A   Clear
2:16 AM 21.6 °F - 20.3 °F 95% 30.27 in 10.0 mi Calm Calm - N/A   Clear
2:37 AM 21.0 °F - 19.9 °F 96% 30.27 in 10.0 mi Calm Calm - N/A   Clear
2:56 AM 21.4 °F - 20.3 °F 96% 30.27 in 10.0 mi Calm Calm - N/A   Clear
3:16 AM 20.8 °F - 19.8 °F 96% 30.27 in 10.0 mi Calm Calm - N/A   Clear
3:36 AM 21.4 °F - 20.3 °F 96% 30.27 in 10.0 mi Calm Calm - N/A   Clear
3:56 AM 21.7 °F - 20.1 °F 93% 30.27 in 10.0 mi Calm Calm - N/A   Clear
4:17 AM 21.6 °F - 20.5 °F 96% 30.27 in 10.0 mi Calm Calm - N/A   Clear
4:37 AM 21.0 °F - 20.1 °F 96% 30.27 in 10.0 mi Calm Calm - N/A   Clear
4:56 AM 21.2 °F - 20.1 °F 96% 30.28 in 10.0 mi Calm Calm - N/A   Clear
5:16 AM 21.7 °F - 20.3 °F 94% 30.28 in 10.0 mi Calm Calm - N/A   Clear
5:37 AM 21.0 °F - 19.8 °F 95% 30.28 in 10.0 mi Calm Calm - N/A   Clear
5:56 AM 20.5 °F - 19.2 °F 95% 30.28 in 10.0 mi Calm Calm - N/A   Clear
6:16 AM 20.3 °F - 19.0 °F 95% 30.29 in 10.0 mi Calm Calm - N/A   Clear
6:37 AM 19.4 °F - 18.3 °F 96% 30.29 in 10.0 mi Calm Calm - N/A   Clear
6:57 AM 19.9 °F - 18.5 °F 94% 30.30 in 10.0 mi Calm Calm - N/A   Clear
7:17 AM 20.7 °F - 18.9 °F 93% 30.30 in 10.0 mi Calm Calm - N/A   Clear
7:36 AM 21.0 °F - 19.2 °F 93% 30.31 in 10.0 mi Calm Calm - N/A   Clear
7:57 AM 21.2 °F - 19.4 °F 93% 30.31 in 10.0 mi Calm Calm - N/A   Clear
8:16 AM 23.0 °F - 20.5 °F 90% 30.32 in 10.0 mi Calm Calm - N/A   Clear
8:36 AM 24.6 °F - 19.6 °F 81% 30.33 in 10.0 mi Calm Calm - N/A   Clear
8:57 AM 25.5 °F - 19.4 °F 78% 30.33 in 10.0 mi Calm Calm - N/A   Clear
9:36 AM 27.1 °F - 19.8 °F 74% 30.33 in 10.0 mi Calm Calm - N/A   Clear
9:57 AM 28.0 °F - 20.1 °F 72% 30.33 in 10.0 mi Calm Calm - N/A   Clear
10:17 AM 28.8 °F - 20.3 °F 71% 30.33 in 10.0 mi Calm Calm - N/A   Clear
10:36 AM 29.3 °F - 20.3 °F 69% 30.33 in 10.0 mi Calm Calm - N/A   Clear
10:57 AM 30.0 °F - 21.2 °F 70% 30.34 in 10.0 mi Calm Calm - N/A   Clear
11:16 AM 30.4 °F 25.6 °F 21.2 °F 69% 30.34 in 10.0 mi NNE 4.6 mph - N/A   Clear
11:36 AM 30.7 °F - 21.0 °F 67% 30.34 in 10.0 mi Calm Calm - N/A   Clear
11:57 AM 31.6 °F 26.0 °F 22.6 °F 69% 30.34 in 10.0 mi North 5.8 mph - N/A   Clear
12:17 PM 31.8 °F - 21.2 °F 65% 30.34 in 10.0 mi Calm Calm - N/A   Clear
12:37 PM 32.0 °F - 22.3 °F 67% 30.34 in 10.0 mi Calm Calm - N/A   Clear
12:56 PM 32.7 °F - 22.5 °F 66% 30.34 in 10.0 mi Calm Calm - N/A   Clear
1:16 PM 33.3 °F - 23.5 °F 68% 30.33 in 10.0 mi Calm Calm - N/A   Clear
1:37 PM 33.3 °F - 23.0 °F 66% 30.33 in 10.0 mi Calm Calm - N/A   Scattered Clouds
1:56 PM 34.3 °F 31.4 °F 25.0 °F 69% 30.33 in 10.0 mi North 3.5 mph - N/A   Scattered Clouds
2:16 PM 34.7 °F - 25.2 °F 68% 30.33 in 10.0 mi Calm Calm - N/A   Scattered Clouds
2:37 PM 35.4 °F - 24.3 °F 64% 30.32 in 10.0 mi Calm Calm - N/A   Scattered Clouds
2:56 PM 36.0 °F 29.6 °F 24.3 °F 63% 30.32 in 10.0 mi NNE 8.1 mph - N/A   Mostly Cloudy
3:16 PM 35.4 °F 30.5 °F 25.2 °F 66% 30.32 in 10.0 mi North 5.8 mph - N/A   Scattered Clouds
3:36 PM 34.9 °F 29.9 °F 25.0 °F 67% 30.32 in 10.0 mi NNE 5.8 mph - N/A   Mostly Cloudy
3:56 PM 34.0 °F 28.8 °F 24.4 °F 68% 30.32 in 10.0 mi ENE 5.8 mph - N/A   Overcast
4:17 PM 34.3 °F - 24.6 °F 68% 30.32 in 10.0 mi Calm Calm - N/A   Overcast
4:37 PM 34.5 °F 29.4 °F 24.3 °F 66% 30.32 in 10.0 mi North 5.8 mph - N/A   Mostly Cloudy
4:50 PM 34.9 °F 29.0 °F 25.3 °F 68% 30.32 in 10.0 mi NNE 6.9 mph - N/A   Scattered Clouds
5:22 PM 34.7 °F 28.1 °F 24.1 °F 65% 30.32 in 10.0 mi NE 8.1 mph - N/A   Scattered Clouds
5:37 PM 34.7 °F - 23.7 °F 64% 30.32 in 10.0 mi Calm Calm - N/A   Clear
5:57 PM 34.9 °F 27.7 °F 21.9 °F 59% 30.32 in 10.0 mi NNE 9.2 mph - N/A   Clear
6:16 PM 34.9 °F 29.0 °F 19.6 °F 54% 30.32 in 10.0 mi North 6.9 mph - N/A   Clear
6:37 PM 34.2 °F 28.2 °F 16.5 °F 49% 30.32 in 10.0 mi NNE 6.9 mph - N/A   Clear
6:56 PM 33.6 °F 27.5 °F 17.8 °F 52% 30.32 in 10.0 mi NE 6.9 mph - N/A   Clear
7:16 PM 33.1 °F 30.0 °F 20.5 °F 60% 30.32 in 10.0 mi NNE 3.5 mph - N/A   Clear
7:37 PM 32.2 °F - 21.2 °F 64% 30.33 in 10.0 mi Calm Calm - N/A   Clear
7:56 PM 31.6 °F - 22.1 °F 68% 30.33 in 10.0 mi Calm Calm - N/A   Clear
8:16 PM 31.1 °F - 23.4 °F 73% 30.32 in 10.0 mi Calm Calm - N/A   Clear
8:36 PM 30.6 °F - 23.4 °F 75% 30.32 in 10.0 mi Calm Calm - N/A   Clear
8:57 PM 30.2 °F - 23.7 °F 77% 30.33 in 10.0 mi Calm Calm - N/A   Clear
9:16 PM 29.8 °F 23.0 °F 23.2 °F 76% 30.33 in 10.0 mi North 6.9 mph - N/A   Clear
9:36 PM 29.7 °F 24.7 °F 23.9 °F 79% 30.33 in 10.0 mi North 4.6 mph - N/A   Clear
9:57 PM 29.3 °F - 24.6 °F 83% 30.34 in 10.0 mi Calm Calm - N/A   Clear
10:17 PM 28.4 °F - 25.0 °F 87% 30.33 in 10.0 mi Calm Calm - N/A   Clear
10:36 PM 28.2 °F - 25.0 °F 88% 30.34 in 10.0 mi Calm Calm - N/A   Clear
10:56 PM 27.5 °F - 24.3 °F 88% 30.34 in 10.0 mi Calm Calm - N/A   Clear
11:17 PM 27.3 °F - 24.6 °F 90% 30.33 in 10.0 mi Calm Calm - N/A   Clear
11:37 PM 26.4 °F - 25.0 °F 94% 30.33 in 10.0 mi Calm Calm - N/A   Clear
11:56 PM 25.3 °F - 23.9 °F 94% 30.33 in 10.0 mi Calm Calm - N/A   Clear